Lakeville, MN

1:25 PM CST on December 04, 2016 (GMT -0600)
Airlake

Weather History for KLVN - January, 2012

Change the Weather History Date:

Thursday, January 26, 2012

  Actual Average Record
Temperature  
Mean Temperature 30 °F -  
Max Temperature 37 °F 20 °F 46 °F (2002)
Min Temperature 24 °F 1 °F -24 °F (1950)
Degree Days  
Heating Degree Days 34    
Moisture  
Dew Point 26 °F    
Average Humidity 84    
Maximum Humidity 100    
Minimum Humidity 70    
Precipitation  
Precipitation 0.00 in - - ()
Sea Level Pressure  
Sea Level Pressure 29.73 in    
Wind  
Wind Speed 7 mph (WSW)    
Max Wind Speed 16 mph    
Max Gust Speed 22 mph    
Visibility 8 miles    
Events      
Averages and records for this station are not official NWS values.
T = Trace of Precipitation, MM = Missing Value Source: NWS Daily Summary

Daily Weather History Graph

Daily Weather History Graph

Search for Another Location

Airport or City:

Trip Planner

Search our weather history database for the weather conditions in past years. The results will help you decide how hot, cold, wet, or windy it might be!

Date:

Astronomy

Jan. 26, 2012 Rise Set
Actual Time 7:38 AM CST 5:12 PM CST
Civil Twilight 7:06 AM CST 5:44 PM CST
Nautical Twilight 6:31 AM CST 6:19 PM CST
Astronomical Twilight 5:57 AM CST 6:54 PM CST
Moon 8:55 AM CST (1/26) 9:18 PM CST (1/26)
Length of Visible Light 10h 37m
Length of Day
9h 34m
Waxing Crescent, 12% of the Moon is Illuminated
Jan 26
Waxing Crescent
Jan 30
First Quarter
Feb 7
Full
Feb 14
Last Quarter
Feb 21
New

Hourly Weather History & Observations

Time (CST) Temp. Windchill Dew Point Humidity Pressure Visibility Wind Dir Wind Speed Gust Speed Precip Events Conditions
12:06 AM 28.4 °F 19.1 °F 26.6 °F 93% 29.83 in 7.0 mi South 10.4 mph - N/A   Clear
12:26 AM 28.4 °F 21.2 °F 26.6 °F 93% 29.83 in 7.0 mi South 6.9 mph - N/A   Clear
12:46 AM 28.4 °F 19.7 °F 26.6 °F 93% 29.82 in 7.0 mi South 9.2 mph - N/A   Clear
1:07 AM 26.6 °F 18.2 °F 24.8 °F 93% 29.80 in 7.0 mi South 8.1 mph - N/A   Clear
1:26 AM 26.6 °F 20.0 °F 26.6 °F 100% 29.80 in 7.0 mi SSW 5.8 mph - N/A   Clear
1:46 AM 28.4 °F 21.2 °F 26.6 °F 93% 29.80 in 7.0 mi South 6.9 mph - N/A   Clear
2:05 AM 26.6 °F 21.2 °F 26.6 °F 100% 29.78 in 7.0 mi SSW 4.6 mph - N/A   Clear
2:26 AM 26.6 °F 20.0 °F 24.8 °F 93% 29.78 in 7.0 mi South 5.8 mph - N/A   Clear
2:46 AM 26.6 °F 22.6 °F 24.8 °F 93% 29.77 in 5.0 mi South 3.5 mph - N/A   Clear
3:06 AM 26.6 °F 22.6 °F 24.8 °F 93% 29.76 in 5.0 mi SSW 3.5 mph - N/A   Clear
3:26 AM 26.6 °F - 24.8 °F 93% 29.77 in 5.0 mi Calm Calm - N/A   Clear
3:46 AM 26.6 °F 20.0 °F 24.8 °F 93% 29.77 in 5.0 mi SSW 5.8 mph - N/A   Clear
4:06 AM 28.4 °F 23.3 °F 26.6 °F 93% 29.76 in 7.0 mi SSW 4.6 mph - N/A   Clear
4:26 AM 28.4 °F 20.4 °F 26.6 °F 93% 29.75 in 7.0 mi South 8.1 mph - N/A   Clear
4:46 AM 28.4 °F 23.3 °F 26.6 °F 93% 29.75 in 7.0 mi SW 4.6 mph - N/A   Clear
5:06 AM 28.4 °F 24.6 °F 26.6 °F 93% 29.76 in 7.0 mi SSW 3.5 mph - N/A   Clear
5:26 AM 28.4 °F 23.3 °F 26.6 °F 93% 29.74 in 7.0 mi SW 4.6 mph - N/A   Clear
5:46 AM 28.4 °F 22.2 °F 26.6 °F 93% 29.74 in 7.0 mi WSW 5.8 mph - N/A   Clear
6:06 AM 28.4 °F - 26.6 °F 93% 29.72 in 7.0 mi Calm Calm - N/A   Clear
6:25 AM 28.4 °F 24.6 °F 26.6 °F 93% 29.72 in 7.0 mi SSW 3.5 mph - N/A   Clear
6:46 AM 26.6 °F 21.2 °F 24.8 °F 93% 29.71 in 5.0 mi SW 4.6 mph - N/A   Clear
7:06 AM 26.6 °F 20.0 °F 24.8 °F 93% 29.71 in 4.0 mi WSW 5.8 mph - N/A   Clear
7:26 AM 26.6 °F - 24.8 °F 93% 29.71 in 5.0 mi Calm Calm - N/A   Clear
7:46 AM 26.6 °F 21.2 °F 24.8 °F 93% 29.71 in 5.0 mi SW 4.6 mph - N/A   Clear
8:06 AM 26.6 °F 22.6 °F 24.8 °F 93% 29.70 in 5.0 mi SSW 3.5 mph - N/A   Clear
8:26 AM 26.6 °F - 24.8 °F 93% 29.70 in 5.0 mi Calm Calm - N/A   Clear
8:46 AM 28.4 °F 23.3 °F 24.8 °F 86% 29.71 in 7.0 mi SW 4.6 mph - N/A   Clear
9:06 AM 28.4 °F 23.3 °F 24.8 °F 86% 29.72 in 10.0 mi SW 4.6 mph - N/A   Clear
9:26 AM 30.2 °F 25.4 °F 24.8 °F 80% 29.72 in 10.0 mi WSW 4.6 mph - N/A   Clear
9:46 AM 32.0 °F 25.6 °F 26.6 °F 80% 29.72 in 10.0 mi WSW 6.9 mph - N/A   Clear
10:06 AM 32.0 °F 24.2 °F 26.6 °F 80% 29.73 in 10.0 mi WSW 9.2 mph - N/A   Clear
10:26 AM 33.8 °F 25.8 °F 26.6 °F 75% 29.72 in 10.0 mi West 10.4 mph - N/A   Clear
10:46 AM 33.8 °F 26.4 °F 26.6 °F 75% 29.72 in 10.0 mi West 9.2 mph - N/A   Clear
11:06 AM 35.6 °F 29.2 °F 26.6 °F 70% 29.71 in 10.0 mi West 8.1 mph - N/A   Clear
11:26 AM 35.6 °F 29.2 °F 26.6 °F 70% 29.70 in 10.0 mi West 8.1 mph - N/A   Clear
11:46 AM 35.6 °F 28.6 °F 28.4 °F 75% 29.70 in 10.0 mi West 9.2 mph - N/A   Clear
12:05 PM 35.6 °F 28.0 °F 28.4 °F 75% 29.69 in 10.0 mi West 10.4 mph - N/A   Clear
12:26 PM 35.6 °F 27.5 °F 28.4 °F 75% 29.68 in 10.0 mi West 11.5 mph - N/A   Clear
12:46 PM 35.6 °F 26.6 °F 28.4 °F 75% 29.67 in 10.0 mi West 13.8 mph - N/A   Clear
1:06 PM 37.4 °F 28.9 °F 28.4 °F 70% 29.67 in 10.0 mi West 13.8 mph 17.3 mph N/A   Clear
1:26 PM 37.4 °F 28.5 °F 28.4 °F 70% 29.66 in 10.0 mi WNW 15.0 mph 19.6 mph N/A   Clear
1:46 PM 37.4 °F 28.2 °F 28.4 °F 70% 29.66 in 10.0 mi West 16.1 mph - N/A   Scattered Clouds
2:05 PM 37.4 °F 29.3 °F 28.4 °F 70% 29.66 in 10.0 mi WNW 12.7 mph - N/A   Scattered Clouds
2:46 PM 35.6 °F 26.6 °F 28.4 °F 75% 29.68 in 10.0 mi WNW 13.8 mph - N/A   Mostly Cloudy
3:06 PM 35.6 °F 26.2 °F 28.4 °F 75% 29.68 in 10.0 mi WNW 15.0 mph - N/A   Overcast
3:26 PM 35.6 °F 26.2 °F 28.4 °F 75% 29.69 in 10.0 mi NW 15.0 mph 19.6 mph N/A   Mostly Cloudy
3:46 PM 35.6 °F 26.2 °F 28.4 °F 75% 29.70 in 10.0 mi WNW 15.0 mph 21.9 mph N/A   Overcast
4:05 PM 35.6 °F 28.0 °F 28.4 °F 75% 29.72 in 10.0 mi WNW 10.4 mph - N/A   Overcast
4:26 PM 35.6 °F 28.0 °F 28.4 °F 75% 29.72 in 10.0 mi NW 10.4 mph - N/A   Overcast
4:46 PM 35.6 °F 28.0 °F 28.4 °F 75% 29.72 in 10.0 mi NW 10.4 mph - N/A   Scattered Clouds
5:06 PM 33.8 °F 25.3 °F 26.6 °F 75% 29.74 in 10.0 mi NW 11.5 mph 20.7 mph N/A   Clear
5:26 PM 33.8 °F 24.8 °F 26.6 °F 75% 29.75 in 10.0 mi NW 12.7 mph - N/A   Clear
5:45 PM 32.0 °F 24.8 °F 26.6 °F 80% 29.75 in 10.0 mi WNW 8.1 mph - N/A   Clear
6:06 PM 30.2 °F 23.4 °F 24.8 °F 80% 29.75 in 10.0 mi NW 6.9 mph - N/A   Clear
6:46 PM 30.2 °F - 24.8 °F 80% 29.77 in 10.0 mi Calm Calm - N/A   Clear
7:06 PM 28.4 °F 23.3 °F 24.8 °F 86% 29.76 in 10.0 mi West 4.6 mph - N/A   Clear
7:26 PM 28.4 °F 22.2 °F 24.8 °F 86% 29.76 in 10.0 mi West 5.8 mph - N/A   Clear
7:45 PM 28.4 °F 22.2 °F 24.8 °F 86% 29.76 in 10.0 mi West 5.8 mph - N/A   Clear
8:06 PM 24.8 °F 16.9 °F 23.0 °F 93% 29.76 in 10.0 mi West 6.9 mph - N/A   Clear
8:25 PM 26.6 °F 18.2 °F 23.0 °F 86% 29.76 in 10.0 mi WNW 8.1 mph - N/A   Clear
8:46 PM 28.4 °F 19.1 °F 23.0 °F 80% 29.76 in 10.0 mi WNW 10.4 mph - N/A   Clear
9:06 PM 26.6 °F 17.5 °F 21.2 °F 80% 29.76 in 10.0 mi WNW 9.2 mph - N/A   Clear
9:26 PM 26.6 °F 17.5 °F 19.4 °F 74% 29.76 in 10.0 mi WNW 9.2 mph - N/A   Clear
9:46 PM 23.0 °F 14.7 °F 19.4 °F 86% 29.76 in 10.0 mi WNW 6.9 mph - N/A   Clear
10:06 PM 21.2 °F 11.7 °F 19.4 °F 93% 29.77 in 10.0 mi West 8.1 mph - N/A   Clear
10:26 PM 23.0 °F 15.8 °F 19.4 °F 86% 29.77 in 10.0 mi West 5.8 mph - N/A   Clear
10:46 PM 24.8 °F 16.1 °F 21.2 °F 86% 29.78 in 10.0 mi West 8.1 mph - N/A   Clear
11:06 PM 23.0 °F 14.7 °F 19.4 °F 86% 29.78 in 10.0 mi West 6.9 mph - N/A   Clear
11:26 PM 21.2 °F 13.6 °F 17.6 °F 86% 29.78 in 10.0 mi West 5.8 mph - N/A   Clear
11:46 PM 23.0 °F 14.7 °F 19.4 °F 86% 29.79 in 10.0 mi West 6.9 mph - N/A   Clear